"datetime","# probes","# resolvers","can_ipv6","can_ipv6_prbs","can_tcp","can_tcp_prbs","can_tcp6","can_tcp6_prbs","does_ecs","does_ecs_prbs","does_flagday","does_flagday_prbs","does_rov4","does_rov4_prbs","does_rov6","does_rov6_prbs","does_qnamemin","doesnt_qnamemin","does_qnamemin_prbs","doesnt_qnamemin_prbs","does_nxdomain","doesnt_nxdomain","does_nxdomain_prbs","doesnt_nxdomain_prbs","has_ta_19036","hasnt_ta_19036","has_ta_19036_prbs","hasnt_ta_19036_prbs","has_ta_20326","hasnt_ta_20326","has_ta_20326_prbs","hasnt_ta_20326_prbs","can_rsamd5","cannot_rsamd5","broken_rsamd5","can_rsamd5_prbs","cannot_rsamd5_prbs","broken_rsamd5_prbs","can_dsa","cannot_dsa","broken_dsa","can_dsa_prbs","cannot_dsa_prbs","broken_dsa_prbs","can_rsasha1","cannot_rsasha1","broken_rsasha1","can_rsasha1_prbs","cannot_rsasha1_prbs","broken_rsasha1_prbs","can_dsansec3","cannot_dsansec3","broken_dsansec3","can_dsansec3_prbs","cannot_dsansec3_prbs","broken_dsansec3_prbs","can_rsansec3","cannot_rsansec3","broken_rsansec3","can_rsansec3_prbs","cannot_rsansec3_prbs","broken_rsansec3_prbs","can_rsasha256","cannot_rsasha256","broken_rsasha256","can_rsasha256_prbs","cannot_rsasha256_prbs","broken_rsasha256_prbs","can_rsasha512","cannot_rsasha512","broken_rsasha512","can_rsasha512_prbs","cannot_rsasha512_prbs","broken_rsasha512_prbs","can_eccgost","cannot_eccgost","broken_eccgost","can_eccgost_prbs","cannot_eccgost_prbs","broken_eccgost_prbs","can_ecdsa256","cannot_ecdsa256","broken_ecdsa256","can_ecdsa256_prbs","cannot_ecdsa256_prbs","broken_ecdsa256_prbs","can_ecdsa384","cannot_ecdsa384","broken_ecdsa384","can_ecdsa384_prbs","cannot_ecdsa384_prbs","broken_ecdsa384_prbs","can_ed25519","cannot_ed25519","broken_ed25519","can_ed25519_prbs","cannot_ed25519_prbs","broken_ed25519_prbs","can_ed448","cannot_ed448","broken_ed448","can_ed448_prbs","cannot_ed448_prbs","broken_ed448_prbs","can_gost","cannot_gost","broken_gost","can_gost_prbs","cannot_gost_prbs","broken_gost_prbs","can_sha384","cannot_sha384","broken_sha384","can_sha384_prbs","cannot_sha384_prbs","broken_sha384_prbs","is_internal","is_forwarding","is_external","is_internal_prbs","is_forwarding_prbs","is_external_prbs"
2017-06-20T23:59:59Z,105,198,180,97,198,105,174,95,0,11,0,0,0,0,0,0,1,197,2,105,0,198,0,105,0,0,0,0,0,0,0,0,1,197,0,5,104,10,198,0,0,105,20,2,198,0,0,105,13,1,198,0,0,105,20,2,198,0,0,105,13,1,198,0,0,105,13,1,198,0,0,105,13,1,198,0,0,105,23,2,198,0,0,105,14,1,198,0,0,105,14,1,0,198,0,0,105,2,0,198,0,0,105,2,198,0,0,105,16,2,196,0,0,105,14,1,156,0,42,84,14,41
2017-06-21T23:59:59Z,104,195,177,96,195,104,171,94,0,12,0,0,0,0,0,0,1,194,2,104,0,195,0,104,0,0,0,0,0,0,0,0,1,194,0,5,103,10,195,0,0,104,20,2,195,0,0,104,13,1,195,0,0,104,20,2,195,0,0,104,13,1,195,0,0,104,13,1,195,0,0,104,13,1,195,0,0,104,23,2,195,0,0,104,14,1,195,0,0,104,14,1,0,195,0,0,104,2,0,195,0,0,104,2,195,0,0,104,16,2,195,0,0,104,14,1,153,0,42,83,14,41
2017-06-22T23:59:59Z,105,198,180,97,198,105,174,95,0,11,0,0,0,0,0,0,1,197,2,105,0,198,0,105,0,0,0,0,0,0,0,0,1,197,0,5,104,9,198,0,0,105,21,1,198,0,0,105,14,0,198,0,0,105,21,1,198,0,0,105,14,0,198,0,0,105,14,0,198,0,0,105,14,0,198,0,0,105,24,1,198,0,0,105,15,0,198,0,0,105,15,0,0,198,0,0,105,1,0,198,0,0,105,1,198,0,0,105,16,2,198,0,0,105,14,1,154,0,44,83,16,42
2017-06-23T23:59:56Z,104,197,179,96,197,104,173,94,0,10,0,0,0,0,0,0,1,196,2,104,0,197,1,104,0,0,0,0,0,0,0,0,1,196,0,5,103,9,197,0,0,104,20,2,197,0,0,104,13,1,197,0,0,104,20,2,197,0,0,104,13,1,197,0,0,104,13,1,197,0,0,104,13,1,197,0,0,104,23,2,197,0,0,104,14,1,197,0,0,104,14,1,0,197,0,0,104,2,0,197,0,0,104,2,197,0,0,104,15,3,197,0,0,104,13,2,153,0,44,82,17,41
2017-06-24T23:59:59Z,102,194,176,94,194,102,170,92,0,10,0,0,0,0,0,0,1,193,2,102,0,194,0,102,0,0,0,0,0,0,0,0,1,193,0,6,101,7,194,0,0,102,18,1,194,0,0,102,12,0,194,0,0,102,18,1,194,0,0,102,12,0,194,0,0,102,12,0,194,0,0,102,12,0,194,0,0,102,21,1,194,0,0,102,13,0,194,0,0,102,13,0,0,194,0,0,102,1,0,194,0,0,102,1,194,0,0,102,14,2,194,0,0,102,12,1,150,0,44,80,16,40
2017-06-25T23:59:58Z,103,196,178,95,196,103,172,93,0,11,0,0,0,0,0,0,1,195,2,103,0,196,0,103,0,0,0,0,0,0,0,0,1,195,0,6,102,7,196,0,0,103,19,1,196,0,0,103,13,0,196,0,0,103,19,1,196,0,0,103,13,0,196,0,0,103,13,0,196,0,0,103,13,0,196,0,0,103,22,1,196,0,0,103,14,0,196,0,0,103,14,0,0,196,0,0,103,1,0,196,0,0,103,1,196,0,0,103,15,2,196,0,0,103,13,1,152,0,44,81,17,40
2017-06-26T23:59:59Z,105,199,183,98,199,105,177,96,0,10,0,0,0,0,0,0,1,198,2,105,0,199,0,105,0,0,0,0,0,0,0,0,1,198,0,6,104,7,199,0,0,105,19,1,199,0,0,105,13,0,199,0,0,105,19,1,199,0,0,105,13,0,199,0,0,105,13,0,199,0,0,105,13,0,199,0,0,105,22,1,199,0,0,105,14,0,199,0,0,105,14,0,0,199,0,0,105,1,0,199,0,0,105,1,199,0,0,105,15,2,199,0,0,105,13,1,157,0,42,84,17,39
2017-06-27T23:59:58Z,105,200,182,97,200,105,176,95,0,9,0,0,0,0,0,0,1,199,2,105,0,200,0,105,0,0,0,0,0,0,0,0,1,199,0,6,104,7,200,0,0,105,18,1,200,0,0,105,12,0,200,0,0,105,18,1,200,0,0,105,12,0,200,0,0,105,12,0,200,0,0,105,12,0,200,0,0,105,21,1,200,0,0,105,13,0,200,0,0,105,13,0,0,200,0,0,105,1,0,200,0,0,105,1,200,0,0,105,14,2,200,0,0,105,12,1,156,0,44,83,16,40
2017-06-28T23:59:59Z,106,201,183,98,201,106,177,96,0,10,0,0,0,0,0,0,1,200,2,106,0,201,0,106,0,0,0,0,0,0,0,0,1,200,0,6,105,8,201,0,0,106,19,2,201,0,0,106,13,1,201,0,0,106,19,2,201,0,0,106,13,1,201,0,0,106,13,1,201,0,0,106,13,1,201,0,0,106,22,2,201,0,0,106,14,1,201,0,0,106,14,1,0,201,0,0,106,2,0,201,0,0,106,2,201,0,0,106,15,3,201,0,0,106,13,2,157,0,44,84,17,40
2017-06-29T23:59:57Z,105,200,182,97,200,105,176,95,0,9,0,0,0,0,0,0,1,199,2,105,0,200,0,105,0,0,0,0,0,0,0,0,1,199,0,6,104,7,200,0,0,105,18,1,200,0,0,105,12,0,200,0,0,105,18,1,200,0,0,105,12,0,200,0,0,105,12,0,200,0,0,105,12,0,200,0,0,105,21,1,200,0,0,105,13,0,200,0,0,105,13,0,0,200,0,0,105,1,0,200,0,0,105,1,200,0,0,105,14,2,200,0,0,105,12,1,156,0,44,83,16,40
2017-06-30T23:59:59Z,106,201,183,98,201,106,177,96,0,9,0,0,0,0,0,0,1,200,2,106,0,201,0,106,0,0,0,0,0,0,0,0,1,200,0,6,105,7,201,0,0,106,18,1,201,0,0,106,12,0,201,0,0,106,18,1,201,0,0,106,12,0,201,0,0,106,12,0,201,0,0,106,12,1,201,0,0,106,21,2,201,0,0,106,13,0,201,0,0,106,13,0,0,201,0,0,106,1,0,201,0,0,106,1,201,0,0,106,14,2,201,0,0,106,12,1,155,0,46,83,17,41
2017-07-01T23:59:58Z,104,197,179,96,197,104,173,94,0,9,0,0,0,0,0,0,1,196,2,104,0,197,0,104,0,0,0,0,0,0,0,0,1,196,0,6,103,7,197,0,0,104,18,1,197,0,0,104,12,0,197,0,0,104,18,1,197,0,0,104,12,0,197,0,0,104,12,0,197,0,0,104,12,0,197,0,0,104,21,2,197,0,0,104,13,0,197,0,0,104,13,0,0,197,0,0,104,1,0,197,0,0,104,1,197,0,0,104,14,2,197,0,0,104,12,1,151,0,46,81,17,41
2017-07-02T23:59:59Z,106,200,182,98,200,106,176,96,0,10,0,0,0,0,0,0,1,199,2,106,0,200,0,106,0,0,0,0,0,0,0,0,1,199,0,6,105,7,200,0,0,106,19,1,200,0,0,106,13,0,200,0,0,106,19,1,200,0,0,106,13,0,200,0,0,106,13,0,200,0,0,106,13,0,200,0,0,106,22,1,200,0,0,106,14,0,200,0,0,106,14,0,0,200,0,0,106,1,0,200,0,0,106,1,200,0,0,106,15,2,200,0,0,106,13,1,154,0,46,83,18,41
2017-07-03T23:59:59Z,107,203,185,99,203,107,179,97,0,9,0,0,0,0,0,0,1,202,3,107,0,203,0,107,0,0,0,0,0,0,0,0,1,202,0,6,106,7,203,0,0,107,18,1,203,0,0,107,12,1,203,0,0,107,18,1,203,0,0,107,12,1,203,0,0,107,12,1,203,0,0,107,12,1,203,0,0,107,21,1,203,0,0,107,13,1,203,0,0,107,13,1,0,203,0,0,107,1,0,203,0,0,107,1,203,0,0,107,14,2,203,0,0,107,12,2,157,0,46,84,17,41
2017-07-04T23:59:57Z,110,209,189,102,209,110,183,100,0,10,0,0,0,0,0,0,1,208,2,110,0,209,0,110,0,0,0,0,0,0,0,0,1,208,0,6,109,8,209,0,0,110,19,1,209,0,0,110,13,0,209,0,0,110,19,1,209,0,0,110,13,0,209,0,0,110,13,0,209,0,0,110,13,0,209,0,0,110,22,1,209,0,0,110,14,0,209,0,0,110,14,0,0,209,0,0,110,1,0,209,0,0,110,1,209,0,0,110,15,2,209,0,0,110,13,1,160,0,49,86,18,43
2017-07-05T23:59:58Z,110,209,189,102,209,110,183,100,0,10,0,0,0,0,0,0,1,208,2,110,0,209,0,110,0,0,0,0,0,0,0,0,1,208,0,6,109,8,209,0,0,110,19,1,209,0,0,110,12,0,209,0,0,110,19,1,209,0,0,110,12,0,209,0,0,110,12,0,209,0,0,110,12,0,209,0,0,110,22,1,209,0,0,110,13,0,209,0,0,110,13,0,0,209,0,0,110,1,0,209,0,0,110,1,209,0,0,110,14,2,209,0,0,110,12,1,160,0,49,86,17,43
2017-07-06T23:59:59Z,110,209,189,102,209,110,183,100,0,10,0,0,0,0,0,0,1,208,2,110,0,209,0,110,0,0,0,0,0,0,0,0,1,208,0,6,109,8,209,0,0,110,19,1,209,0,0,110,12,0,209,0,0,110,19,1,209,0,0,110,12,0,209,0,0,110,12,0,209,0,0,110,12,0,209,0,0,110,22,1,209,0,0,110,13,0,209,0,0,110,13,0,0,209,0,0,110,1,0,209,0,0,110,1,209,0,0,110,14,2,209,0,0,110,12,1,160,0,49,86,17,43
2017-07-07T23:59:59Z,110,208,188,102,208,110,182,100,0,10,0,0,0,0,0,0,1,207,2,110,0,208,0,110,0,0,0,0,0,0,0,0,1,207,0,6,109,8,208,0,0,110,19,1,208,0,0,110,12,0,208,0,0,110,19,1,208,0,0,110,12,0,208,0,0,110,12,0,208,0,0,110,12,0,208,0,0,110,22,1,208,0,0,110,13,0,208,0,0,110,13,0,0,208,0,0,110,1,0,208,0,0,110,1,208,0,0,110,14,2,208,0,0,110,12,1,159,0,49,86,17,43
2017-07-08T23:59:59Z,109,207,187,101,207,109,181,99,0,10,0,0,0,0,0,0,1,206,2,109,0,207,0,109,0,0,0,0,0,0,0,0,1,206,0,6,108,8,207,0,0,109,19,1,207,0,0,109,12,0,207,0,0,109,19,1,207,0,0,109,12,0,207,0,0,109,12,0,207,0,0,109,12,0,207,0,0,109,22,1,207,0,0,109,13,0,207,0,0,109,13,0,0,207,0,0,109,1,0,207,0,0,109,1,207,0,0,109,14,2,207,0,0,109,12,1,160,0,47,86,17,42
2017-07-09T23:59:59Z,112,215,195,104,215,112,189,102,0,10,0,0,0,0,0,0,1,214,2,112,0,215,0,112,0,0,0,0,0,0,0,0,1,214,0,6,111,7,215,0,0,112,20,0,215,0,0,112,13,0,215,0,0,112,20,0,215,0,0,112,13,0,215,0,0,112,13,0,215,0,0,112,13,0,215,0,0,112,23,0,215,0,0,112,14,0,215,0,0,112,14,0,0,215,0,0,112,0,0,215,0,0,112,0,215,0,0,112,15,1,215,0,0,112,13,1,168,0,47,89,17,42
2017-07-10T23:59:59Z,112,214,196,105,214,112,190,103,0,9,0,0,0,0,0,0,1,213,2,112,0,214,1,112,0,0,0,0,0,0,0,0,1,213,0,6,111,6,214,0,0,112,20,0,214,0,0,112,14,0,214,0,0,112,20,0,214,0,0,112,14,0,214,0,0,112,14,0,214,0,0,112,14,0,214,0,0,112,23,0,214,0,0,112,15,0,214,0,0,112,15,0,0,214,0,0,112,0,0,214,0,0,112,0,214,0,0,112,15,2,214,0,0,112,13,2,167,0,47,89,18,41
2017-07-11T23:59:59Z,111,213,195,104,213,111,189,102,0,10,0,0,0,0,0,0,1,212,2,111,0,213,0,111,0,0,0,0,0,0,0,0,1,212,0,5,110,6,213,0,0,111,19,0,213,0,0,111,13,0,213,0,0,111,19,0,213,0,0,111,13,0,213,0,0,111,13,0,213,0,0,111,13,0,213,0,0,111,21,0,213,0,0,111,14,0,213,0,0,111,14,0,0,213,0,0,111,0,0,213,0,0,111,0,213,0,0,111,14,1,213,0,0,111,14,1,166,0,47,88,17,40
2017-07-12T23:59:59Z,109,208,190,102,208,109,184,100,0,10,0,0,0,0,0,0,1,207,2,109,0,208,0,109,0,0,0,0,0,0,0,0,1,207,0,5,108,7,208,0,0,109,20,0,208,0,0,109,13,0,208,0,0,109,20,0,208,0,0,109,13,0,208,0,0,109,13,0,208,0,0,109,13,0,208,0,0,109,22,0,208,0,0,109,14,0,208,0,0,109,14,0,0,208,0,0,109,0,0,208,0,0,109,0,208,0,0,109,14,1,208,0,0,109,13,1,161,0,47,86,17,41
2017-07-13T23:59:59Z,111,214,196,104,214,111,190,102,0,10,0,0,0,0,0,0,1,213,2,111,0,214,0,111,0,0,0,0,0,0,0,0,1,213,0,5,110,7,214,0,0,111,20,0,214,0,0,111,13,0,214,0,0,111,20,0,214,0,0,111,13,0,214,0,0,111,13,0,214,0,0,111,13,0,214,0,0,111,22,0,214,0,0,111,14,0,214,0,0,111,14,0,0,214,0,0,111,0,0,214,0,0,111,0,214,0,0,111,14,1,214,0,0,111,13,1,167,0,47,88,18,41
2017-07-14T23:59:59Z,113,219,201,106,219,113,195,104,0,10,0,0,0,0,0,0,1,218,2,113,0,219,0,113,0,0,0,0,0,0,0,0,1,218,0,5,112,7,219,0,0,113,19,0,219,0,0,113,12,0,219,0,0,113,19,0,219,0,0,113,12,0,219,0,0,113,12,0,219,0,0,113,12,0,219,0,0,113,21,0,219,0,0,113,13,0,219,0,0,113,13,0,0,219,0,0,113,0,0,219,0,0,113,0,219,0,0,113,13,1,219,0,0,113,12,1,172,0,47,90,18,40
2017-07-15T23:59:59Z,112,216,198,105,216,112,192,103,0,10,0,0,0,0,0,0,1,215,2,112,0,216,0,112,0,0,0,0,0,0,0,0,1,215,0,5,111,7,216,0,0,112,19,0,216,0,0,112,12,0,216,0,0,112,19,0,216,0,0,112,12,0,216,0,0,112,12,0,216,0,0,112,12,0,216,0,0,112,21,0,216,0,0,112,13,0,216,0,0,112,13,0,0,216,0,0,112,0,0,216,0,0,112,0,216,0,0,112,13,1,216,0,0,112,12,1,169,0,47,89,17,39
2017-07-16T23:59:59Z,112,218,200,105,218,112,194,103,0,9,0,0,0,0,0,0,1,217,2,112,0,218,0,112,0,0,0,0,0,0,0,0,1,217,0,5,111,6,218,0,0,112,18,0,218,0,0,112,12,0,218,0,0,112,18,0,218,0,0,112,12,0,218,0,0,112,12,0,218,0,0,112,12,0,218,0,0,112,20,0,218,0,0,112,13,0,218,0,0,112,13,0,0,218,0,0,112,0,0,218,0,0,112,0,218,0,0,112,13,1,218,0,0,112,12,1,171,0,47,89,17,38
2017-07-17T23:59:59Z,111,215,203,106,215,111,197,104,0,9,0,0,0,0,0,0,1,214,2,111,0,215,0,111,0,0,0,0,0,0,0,0,1,214,0,5,110,6,215,0,0,111,17,0,215,0,0,111,11,0,215,0,0,111,17,0,215,0,0,111,11,0,215,0,0,111,11,0,215,0,0,111,11,0,215,0,0,111,20,0,215,0,0,111,12,0,215,0,0,111,12,0,0,215,0,0,111,0,0,215,0,0,111,0,215,0,0,111,13,1,215,0,0,111,11,1,168,0,47,89,17,37
2017-07-18T23:59:59Z,111,214,204,107,214,111,192,103,0,10,0,0,0,0,0,0,1,213,2,111,0,214,0,111,0,0,0,0,0,0,0,0,1,213,0,5,110,7,214,0,0,111,19,0,214,0,0,111,12,0,214,0,0,111,19,0,214,0,0,111,12,0,214,0,0,111,12,0,214,0,0,111,12,0,214,0,0,111,21,0,214,0,0,111,13,0,214,0,0,111,13,0,0,214,0,0,111,0,0,214,0,0,111,0,214,0,0,111,13,2,214,0,0,111,12,1,169,0,45,89,17,38
2017-07-19T23:59:59Z,111,215,210,110,215,111,179,109,0,10,0,0,0,0,0,0,1,214,2,111,0,214,1,111,0,0,0,0,0,0,0,0,1,214,0,5,110,8,215,0,0,111,18,1,215,0,0,111,11,1,215,0,0,111,18,1,215,0,0,111,11,1,215,0,0,111,11,1,215,0,0,111,11,2,215,0,0,111,20,1,215,0,0,111,12,1,215,0,0,111,12,2,0,215,0,0,111,2,0,215,0,0,111,2,215,0,0,111,12,2,215,0,0,111,11,2,170,0,45,89,17,37
2017-07-20T23:59:59Z,110,212,207,109,212,110,157,99,0,9,0,0,0,0,0,0,1,211,2,110,0,212,0,110,0,0,0,0,0,0,0,0,1,211,0,5,109,6,212,0,0,110,18,0,212,0,0,110,12,0,212,0,0,110,18,0,212,0,0,110,12,0,212,0,0,110,12,0,212,0,0,110,12,0,212,0,0,110,20,0,212,0,0,110,13,0,212,0,0,110,13,0,0,212,0,0,110,0,0,212,0,0,110,0,212,0,0,110,13,1,212,0,0,110,12,1,167,0,45,88,19,36
2017-07-21T23:59:59Z,110,212,207,109,212,110,159,100,0,10,0,0,0,0,0,0,1,211,3,110,0,212,0,110,0,0,0,0,0,0,0,0,1,211,0,5,109,7,212,0,0,110,18,0,212,0,0,110,11,0,212,0,0,110,18,0,212,0,0,110,11,0,212,0,0,110,11,0,212,0,0,110,11,0,212,0,0,110,20,0,212,0,0,110,12,0,212,0,0,110,12,0,0,212,0,0,110,0,0,212,0,0,110,0,212,0,0,110,12,1,212,0,0,110,11,1,167,0,45,88,16,37
2017-07-22T23:59:59Z,108,209,204,107,209,108,155,98,0,9,0,0,0,0,0,0,1,208,2,108,0,209,0,108,0,0,0,0,0,0,0,0,1,208,0,5,107,6,209,0,0,108,17,0,209,0,0,108,11,0,209,0,0,108,17,0,209,0,0,108,11,0,209,0,0,108,11,0,209,0,0,108,11,0,209,0,0,108,19,0,209,0,0,108,12,0,209,0,0,108,12,0,0,209,0,0,108,0,0,209,0,0,108,0,209,0,0,108,12,1,209,0,0,108,11,1,164,0,45,86,16,36
2017-07-23T23:59:59Z,110,214,208,109,214,110,160,100,0,10,0,0,0,0,0,0,1,213,2,110,0,214,0,110,0,0,0,0,0,0,0,0,1,213,0,5,109,6,214,0,0,110,17,0,214,0,0,110,11,0,214,0,0,110,17,0,214,0,0,110,11,0,214,0,0,110,11,0,214,0,0,110,11,0,214,0,0,110,19,0,214,0,0,110,12,0,214,0,0,110,12,0,0,214,0,0,110,0,0,214,0,0,110,0,214,0,0,110,12,1,214,0,0,110,11,1,166,0,48,87,17,37
2017-07-24T23:59:59Z,112,217,211,111,217,112,161,101,0,9,0,0,0,0,0,0,1,216,2,112,0,217,0,112,0,0,0,0,0,0,0,0,1,216,0,5,111,6,217,0,0,112,17,0,217,0,0,112,11,0,217,0,0,112,17,0,217,0,0,112,11,0,217,0,0,112,11,0,217,0,0,112,11,0,217,0,0,112,19,0,217,0,0,112,12,0,217,0,0,112,12,0,0,217,0,0,112,0,0,217,0,0,112,0,217,0,0,112,14,2,217,0,0,112,11,1,169,0,48,89,17,37
2017-07-25T23:59:59Z,112,217,211,111,217,112,163,102,0,10,0,0,0,0,0,0,1,216,2,112,0,217,0,112,0,0,0,0,0,0,0,0,1,216,0,5,111,7,217,0,0,112,18,0,217,0,0,112,11,0,217,0,0,112,18,0,217,0,0,112,11,0,217,0,0,112,11,0,217,0,0,112,11,0,217,0,0,112,20,0,217,0,0,112,12,0,217,0,0,112,12,0,0,217,0,0,112,0,0,217,0,0,112,0,217,0,0,112,12,1,217,0,0,112,11,1,169,0,48,89,17,38
2017-07-26T23:59:59Z,114,220,214,113,220,114,164,104,0,11,0,0,0,0,0,0,1,219,2,114,0,220,0,114,0,0,0,0,0,0,0,0,1,219,0,5,113,8,220,0,0,114,19,0,220,0,0,114,11,0,220,0,0,114,19,0,220,0,0,114,11,0,220,0,0,114,11,0,220,0,0,114,11,0,220,0,0,114,21,0,220,0,0,114,12,0,220,0,0,114,12,0,0,220,0,0,114,0,0,220,0,0,114,0,220,0,0,114,12,1,220,0,0,114,11,1,172,0,48,91,17,39
2017-07-27T23:59:59Z,113,218,212,112,218,113,162,102,0,11,0,0,0,0,0,0,1,217,2,113,0,218,0,113,0,0,0,0,0,0,0,0,1,217,0,5,112,8,218,0,0,113,19,0,218,0,0,113,11,0,218,0,0,113,19,0,218,0,0,113,11,0,218,0,0,113,11,0,218,0,0,113,11,0,218,0,0,113,21,0,218,0,0,113,12,0,218,0,0,113,12,0,0,218,0,0,113,0,0,218,0,0,113,0,218,0,0,113,12,1,218,0,0,113,11,1,170,0,48,90,17,39
2017-07-28T23:59:59Z,110,211,205,109,211,110,157,99,0,11,0,0,0,0,0,0,1,210,2,110,0,211,0,110,0,0,0,0,0,0,0,0,1,210,0,5,109,8,211,0,0,110,19,0,211,0,0,110,11,0,211,0,0,110,19,0,211,0,0,110,11,0,211,0,0,110,11,0,211,0,0,110,11,0,211,0,0,110,21,0,211,0,0,110,12,0,211,0,0,110,12,0,0,211,0,0,110,0,0,211,0,0,110,0,211,0,0,110,12,1,211,0,0,110,11,1,163,0,48,87,17,39
2017-07-29T23:59:59Z,109,210,204,108,210,109,158,99,0,11,0,0,0,0,0,0,1,209,2,109,0,210,0,109,0,0,0,0,0,0,0,0,1,209,0,5,108,8,210,0,0,109,19,0,210,0,0,109,12,0,210,0,0,109,19,0,210,0,0,109,12,0,210,0,0,109,12,0,210,0,0,109,12,0,210,0,0,109,21,0,210,0,0,109,13,0,210,0,0,109,13,0,0,210,0,0,109,0,0,210,0,0,109,0,210,0,0,109,13,1,210,0,0,109,12,1,163,0,47,87,17,38
2017-07-30T23:59:59Z,107,205,197,105,205,107,150,95,0,11,0,0,0,0,0,0,0,205,1,107,0,205,0,107,0,0,0,0,0,0,0,0,1,204,0,6,106,7,205,0,0,107,19,0,205,0,0,107,12,0,205,0,0,107,19,0,205,0,0,107,12,0,205,0,0,107,12,0,205,0,0,107,12,0,205,0,0,107,21,0,205,0,0,107,13,0,205,0,0,107,13,0,0,205,0,0,107,0,0,205,0,0,107,0,205,0,0,107,13,1,205,0,0,107,12,1,160,0,45,86,18,36
2017-07-31T23:59:59Z,107,207,198,105,207,107,152,96,0,11,0,0,0,0,0,0,0,207,1,107,0,207,0,107,0,0,0,0,0,0,0,0,1,206,0,5,106,7,207,0,0,107,18,0,207,0,0,107,11,0,207,0,0,107,18,0,207,0,0,107,11,0,207,0,0,107,11,0,207,0,0,107,11,0,207,0,0,107,20,0,207,0,0,107,12,0,207,0,0,107,12,0,0,207,0,0,107,0,0,207,0,0,107,0,207,0,0,107,12,1,207,0,0,107,11,1,164,0,43,87,16,35
2017-08-01T23:59:59Z,108,208,199,106,208,108,155,98,0,11,0,0,0,0,0,0,0,208,1,108,0,208,1,108,0,0,0,0,0,0,0,0,1,207,0,5,107,8,208,0,0,108,18,1,208,0,0,108,11,1,208,0,0,108,18,1,208,0,0,108,11,1,208,0,0,108,11,1,208,0,0,108,11,1,208,0,0,108,20,1,208,0,0,108,12,1,208,0,0,108,12,1,0,208,0,0,108,1,0,208,0,0,108,1,208,0,0,108,12,2,208,0,0,108,11,2,165,0,43,88,16,35
2017-08-02T23:59:59Z,108,211,202,106,211,108,157,99,0,12,0,0,0,0,0,0,0,211,1,108,0,211,0,108,0,0,0,0,0,0,0,0,1,210,0,6,107,8,211,0,0,108,20,0,211,0,0,108,12,0,211,0,0,108,20,0,211,0,0,108,12,0,211,0,0,108,12,0,211,0,0,108,12,0,211,0,0,108,22,0,211,0,0,108,13,0,211,0,0,108,13,0,0,211,0,0,108,0,0,211,0,0,108,0,211,0,0,108,13,1,211,0,0,108,12,1,168,0,43,88,17,36
2017-08-03T23:59:59Z,104,202,193,102,202,104,151,96,0,11,0,0,0,0,0,0,0,202,1,104,0,202,0,104,0,0,0,0,0,0,0,0,1,201,0,5,103,7,202,0,0,104,19,0,202,0,0,104,12,0,202,0,0,104,19,0,202,0,0,104,12,0,202,0,0,104,12,0,202,0,0,104,12,0,202,0,0,104,21,0,202,0,0,104,13,0,202,0,0,104,13,0,0,202,0,0,104,0,0,202,0,0,104,0,202,0,0,104,13,1,202,0,0,104,12,1,159,0,43,84,16,35
2017-08-04T23:59:59Z,105,203,194,103,203,105,150,96,0,11,0,0,0,0,0,0,0,203,1,105,0,203,0,105,0,0,0,0,0,0,0,0,1,202,0,5,104,7,203,0,0,105,19,0,203,0,0,105,12,0,203,0,0,105,19,0,203,0,0,105,12,0,203,0,0,105,12,0,203,0,0,105,12,0,203,0,0,105,21,0,203,0,0,105,13,0,203,0,0,105,13,0,0,203,0,0,105,0,0,203,0,0,105,0,203,0,0,105,13,1,203,0,0,105,12,1,160,0,43,85,16,35
2017-08-05T23:59:59Z,106,205,196,104,205,106,154,98,0,11,0,0,0,0,0,0,0,205,1,106,0,205,0,106,0,0,0,0,0,0,0,0,1,204,0,5,105,7,205,0,0,106,21,0,205,0,0,106,14,0,205,0,0,106,21,0,205,0,0,106,14,0,205,0,0,106,14,0,205,0,0,106,14,0,205,0,0,106,23,0,205,0,0,106,15,0,205,0,0,106,15,0,0,205,0,0,106,0,0,205,0,0,106,0,205,0,0,106,15,1,205,0,0,106,14,1,160,0,45,85,17,37
2017-08-06T23:59:59Z,106,206,197,104,206,106,148,95,0,11,0,0,0,0,0,0,0,206,1,106,0,206,0,106,0,0,0,0,0,0,0,0,1,205,0,5,105,7,206,0,0,106,20,0,206,0,0,106,13,0,206,0,0,106,20,0,206,0,0,106,13,0,206,0,0,106,13,0,206,0,0,106,13,0,206,0,0,106,22,0,206,0,0,106,14,0,206,0,0,106,14,0,0,206,0,0,106,0,0,206,0,0,106,0,206,0,0,106,14,1,206,0,0,106,13,1,163,0,43,86,15,36
2017-08-07T23:59:59Z,106,206,197,104,206,106,153,97,0,11,0,0,0,0,0,0,0,206,1,106,0,206,0,106,0,0,0,0,0,0,0,0,1,205,0,5,105,7,206,0,0,106,20,0,206,0,0,106,13,0,206,0,0,106,20,0,206,0,0,106,13,0,206,0,0,106,13,0,206,0,0,106,13,0,206,0,0,106,22,0,206,0,0,106,14,0,206,0,0,106,14,0,0,206,0,0,106,0,0,206,0,0,106,0,206,0,0,106,14,1,206,0,0,106,13,1,163,0,43,86,16,36
2017-08-08T23:59:59Z,106,204,195,104,204,106,151,97,0,11,0,0,0,0,0,0,0,204,1,106,0,204,0,106,0,0,0,0,0,0,0,0,1,203,0,5,105,7,204,0,0,106,19,0,204,0,0,106,12,0,204,0,0,106,19,0,204,0,0,106,12,0,204,0,0,106,12,0,204,0,0,106,12,0,204,0,0,106,21,0,204,0,0,106,13,0,204,0,0,106,13,0,0,204,0,0,106,0,0,204,0,0,106,0,204,0,0,106,13,1,204,0,0,106,12,1,161,0,43,86,16,35
2017-08-09T23:59:59Z,106,205,196,104,205,106,151,96,0,11,0,0,0,0,0,0,1,204,2,106,0,205,0,106,0,0,0,0,0,0,0,0,1,204,0,5,105,7,205,0,0,106,20,0,205,0,0,106,13,0,205,0,0,106,20,0,205,0,0,106,13,0,205,0,0,106,13,0,205,0,0,106,13,0,205,0,0,106,22,0,205,0,0,106,14,0,205,0,0,106,14,0,0,205,0,0,106,0,0,205,0,0,106,0,205,0,0,106,14,1,205,0,0,106,13,1,162,0,43,86,16,36
2017-08-10T23:59:59Z,107,208,199,105,208,107,152,97,0,11,0,0,0,0,0,0,0,208,1,107,0,208,0,107,0,0,0,0,0,0,0,0,1,207,0,5,106,7,208,0,0,107,20,0,208,0,0,107,13,0,208,0,0,107,20,0,208,0,0,107,13,0,208,0,0,107,13,0,208,0,0,107,13,0,208,0,0,107,22,0,208,0,0,107,14,0,208,0,0,107,14,0,0,208,0,0,107,0,0,208,0,0,107,0,208,0,0,107,14,1,208,0,0,107,13,1,165,0,43,87,16,36
2017-08-11T23:59:59Z,105,203,194,103,203,105,149,96,0,11,0,0,0,0,0,0,0,203,1,105,0,203,0,105,0,0,0,0,0,0,0,0,1,202,0,5,104,7,203,0,0,105,20,0,203,0,0,105,13,0,203,0,0,105,20,0,203,0,0,105,13,0,203,0,0,105,13,0,203,0,0,105,13,0,203,0,0,105,22,0,203,0,0,105,14,0,203,0,0,105,14,0,0,203,0,0,105,0,0,203,0,0,105,0,203,0,0,105,14,1,203,0,0,105,13,1,162,0,41,86,16,35
2017-08-12T23:59:59Z,103,199,190,101,199,103,144,92,0,11,0,0,0,0,0,0,0,199,1,103,0,199,0,103,0,0,0,0,0,0,0,0,1,198,0,5,102,7,199,0,0,103,20,0,199,0,0,103,13,0,199,0,0,103,20,0,199,0,0,103,13,0,199,0,0,103,13,0,199,0,0,103,13,0,199,0,0,103,22,0,199,0,0,103,14,0,199,0,0,103,14,0,0,199,0,0,103,0,0,199,0,0,103,0,199,0,0,103,14,1,199,0,0,103,13,1,158,0,41,84,16,35
2017-08-13T23:59:58Z,105,203,194,103,203,105,150,96,0,12,0,0,0,0,0,0,0,203,1,105,0,203,0,105,0,0,0,0,0,0,0,0,1,202,0,5,104,8,203,0,0,105,22,0,203,0,0,105,14,0,203,0,0,105,22,0,203,0,0,105,14,0,203,0,0,105,14,0,203,0,0,105,14,0,203,0,0,105,24,0,203,0,0,105,15,0,203,0,0,105,15,0,0,203,0,0,105,0,0,203,0,0,105,0,203,0,0,105,15,1,203,0,0,105,14,1,162,0,41,86,16,36
2017-08-14T23:59:59Z,106,205,194,103,205,106,148,95,0,11,0,0,0,0,0,0,0,205,1,106,0,205,0,106,0,0,0,0,0,0,0,0,1,204,0,5,105,8,205,0,0,106,21,0,205,0,0,106,12,0,205,0,0,106,21,0,205,0,0,106,12,0,205,0,0,106,12,0,205,0,0,106,12,0,205,0,0,106,23,0,205,0,0,106,13,0,205,0,0,106,13,0,0,205,0,0,106,0,0,205,0,0,106,0,205,0,0,106,14,1,205,0,0,106,12,1,164,0,41,87,17,34
2017-08-15T23:59:59Z,104,202,191,101,202,104,146,93,0,11,0,0,0,0,0,0,0,202,1,104,0,202,0,104,0,0,0,0,0,0,0,0,1,201,0,5,103,7,202,0,0,104,19,0,202,0,0,104,11,0,202,0,0,104,19,0,202,0,0,104,11,0,202,0,0,104,11,0,202,0,0,104,11,0,202,0,0,104,21,0,202,0,0,104,12,0,202,0,0,104,12,0,0,202,0,0,104,0,0,202,0,0,104,0,202,0,0,104,13,1,202,0,0,104,11,1,164,0,38,86,16,33
2017-08-16T23:59:59Z,103,201,190,100,201,103,147,93,0,10,0,0,0,0,0,0,1,200,2,103,0,201,1,103,0,0,0,0,0,0,0,0,1,200,0,5,102,9,201,0,0,103,17,2,201,0,0,103,10,2,201,0,0,103,17,2,201,0,0,103,10,2,201,0,0,103,10,2,201,0,0,103,10,2,201,0,0,103,19,2,201,0,0,103,11,2,201,0,0,103,11,2,0,201,0,0,103,2,0,201,0,0,103,2,201,0,0,103,11,3,201,0,0,103,10,3,164,0,37,86,15,32
2017-08-17T23:59:57Z,105,204,193,102,204,105,150,95,0,11,0,0,0,0,0,0,0,204,1,105,0,204,0,105,0,0,0,0,0,0,0,0,1,203,0,5,104,9,204,0,0,105,18,1,204,0,0,105,10,1,204,0,0,105,18,1,204,0,0,105,10,1,204,0,0,105,10,1,204,0,0,105,10,1,204,0,0,105,20,1,204,0,0,105,11,1,204,0,0,105,11,1,0,204,0,0,105,1,0,204,0,0,105,1,204,0,0,105,11,2,204,0,0,105,10,2,167,0,37,88,15,33
2017-08-18T23:59:59Z,108,208,197,105,208,108,152,96,0,11,0,0,0,0,0,0,0,208,1,108,0,208,0,108,0,0,0,0,0,0,0,0,1,207,0,5,107,9,208,0,0,108,19,1,208,0,0,108,11,1,208,0,0,108,19,1,208,0,0,108,11,1,208,0,0,108,11,1,208,0,0,108,11,1,208,0,0,108,21,1,208,0,0,108,12,1,208,0,0,108,12,1,0,208,0,0,108,1,0,208,0,0,108,1,208,0,0,108,12,2,208,0,0,108,11,2,167,0,41,89,17,35